EW0920 Weather Reports


time (UTC)temp
F
wind
direction
speed
knots
gust
knots
rain 1hr
in
rain 24hr
in
rain mn
in
humidity
%
barometer
mb
20260510123707 57 63 0.0 0.9 0.00 0.00 0.00 98 1016.2
20260510123204 56 333 0.0 0.0 0.00 0.00 0.00 99 1016.2
20260510122700 56 341 0.0 0.0 0.00 0.00 0.00 99 1016.1
20260510122157 56 344 0.0 0.0 0.00 0.00 0.00 99 1015.9
20260510121653 55 344 0.0 0.0 0.00 0.00 0.00 99 1016.0
20260510121150 55 339 0.0 0.0 0.00 0.00 0.00 99 1016.1
20260510120648 55 337 0.0 0.0 0.00 0.00 0.00 99 1016.1
20260510120143 54 350 0.0 0.0 0.00 0.00 0.00 99 1016.0
20260510115640 54 350 0.0 0.0 0.00 0.00 0.00 99 1016.0
20260510115138 54 0 0.0 0.0 0.00 0.00 0.00 99 1015.9
20260510114633 54 0 0.0 0.0 0.00 0.00 0.00 99 1016.0
20260510114130 54 0 0.0 0.0 0.00 0.00 0.00 99 1015.7
20260510113625 53 0 0.0 0.0 0.00 0.00 0.00 99 1015.4
20260510113123 53 0 0.0 0.0 0.00 0.00 0.00 99 1015.2
20260510112619 53 0 0.0 0.0 0.00 0.00 0.00 99 1015.3
20260510112115 53 0 0.0 0.0 0.00 0.00 0.00 99 1015.2
20260510111612 52 0 0.0 0.0 0.00 0.00 0.00 99 1015.1
20260510111102 52 0 0.0 0.0 0.00 0.00 0.00 99 1015.0
20260510110558 52 0 0.0 0.0 0.00 0.00 0.00 99 1014.8
20260510110055 51 0 0.0 0.0 0.00 0.00 0.00 99 1014.9
20260510105550 51 0 0.0 0.0 0.00 0.00 0.00 99 1014.6
20260510105045 51 0 0.0 0.0 0.00 0.00 0.00 99 1014.5
20260510104542 51 0 0.0 0.0 0.00 0.00 0.00 99 1014.4
20260510104038 51 0 0.0 0.0 0.00 0.00 0.00 99 1014.6
20260510103536 51 0 0.0 0.0 0.00 0.00 0.00 99 1014.4
20260510103032 51 0 0.0 0.0 0.00 0.00 0.00 99 1014.3
20260510102527 51 0 0.0 0.0 0.00 0.00 0.00 99 1014.4
20260510102024 51 0 0.0 0.0 0.00 0.00 0.00 99 1014.4
20260510101521 51 0 0.0 0.0 0.00 0.00 0.00 99 1014.2
20260510101020 51 357 0.0 0.0 0.00 0.00 0.00 99 1014.4
20260510100516 51 357 0.0 0.0 0.00 0.00 0.00 99 1014.1
20260510100013 51 357 0.0 0.0 0.00 0.00 0.00 99 1013.9
20260510095508 51 357 0.0 0.0 0.00 0.00 0.00 99 1014.0
20260510095008 51 357 0.0 0.0 0.00 0.00 0.00 99 1014.0
20260510094502 51 357 0.0 0.0 0.00 0.00 0.00 99 1014.0
20260510093958 51 357 0.0 0.0 0.00 0.00 0.00 99 1013.9
20260510093454 51 357 0.0 0.0 0.00 0.00 0.00 99 1013.6
20260510092951 51 357 0.0 0.0 0.00 0.00 0.00 99 1013.7
20260510092448 51 357 0.0 0.0 0.00 0.00 0.00 99 1013.7
20260510091942 51 9 0.0 0.0 0.00 0.00 0.00 99 1013.5
20260510091440 51 9 0.0 0.0 0.00 0.00 0.00 99 1013.2
20260510090936 51 9 0.0 0.0 0.00 0.00 0.00 99 1013.4
20260510090433 51 9 0.0 0.0 0.00 0.00 0.00 99 1013.1
20260510085929 51 9 0.0 0.0 0.00 0.00 0.00 99 1013.2
20260510085424 51 9 0.0 0.0 0.00 0.00 0.00 99 1013.4
20260510084920 51 9 0.0 0.0 0.00 0.00 0.00 99 1013.3
20260510084417 51 11 0.0 0.0 0.00 0.00 0.00 99 1013.1
20260510083914 51 11 0.0 0.0 0.00 0.00 0.00 99 1013.2
20260510083410 51 11 0.0 0.0 0.00 0.00 0.00 99 1013.3
20260510082905 51 15 0.0 0.0 0.00 0.00 0.00 99 1013.2
20260510082404 52 13 0.0 0.0 0.00 0.00 0.00 99 1013.4
20260510081901 52 15 0.0 0.0 0.00 0.00 0.00 99 1013.2
20260510081357 52 15 0.0 0.0 0.00 0.00 0.00 99 1013.2
20260510080855 52 13 0.0 0.0 0.00 0.00 0.00 99 1013.1
20260510080349 52 13 0.0 0.0 0.00 0.00 0.00 99 1013.1
20260510075846 52 28 0.0 0.0 0.00 0.00 0.00 99 1013.0
20260510075344 52 72 0.0 0.0 0.00 0.00 0.00 99 1013.1
20260510074840 52 2 0.0 0.0 0.00 0.00 0.00 99 1013.3
20260510074337 52 352 0.0 0.0 0.00 0.00 0.00 99 1013.0
20260510073834 52 352 0.0 0.0 0.00 0.00 0.00 99 1013.0
20260510073329 52 352 0.0 0.0 0.00 0.00 0.00 99 1013.3
20260510072825 52 355 0.0 0.0 0.00 0.00 0.00 99 1012.8
20260510072322 52 355 0.0 0.0 0.00 0.00 0.00 99 1012.9
20260510071818 52 355 0.0 0.0 0.00 0.00 0.00 99 1012.9
20260510071314 52 355 0.0 0.0 0.00 0.00 0.00 99 1013.0
20260510070814 53 355 0.0 0.0 0.00 0.00 0.00 99 1012.9
20260510070310 53 355 0.0 0.0 0.00 0.00 0.00 99 1012.8
20260510065810 53 355 0.0 0.0 0.00 0.00 0.00 99 1012.8
20260510065307 53 355 0.0 0.0 0.00 0.00 0.00 99 1012.8
20260510064804 53 355 0.0 0.0 0.00 0.00 0.00 98 1012.9
20260510064302 53 355 0.0 0.0 0.00 0.00 0.00 98 1012.9
20260510063757 53 355 0.0 0.0 0.00 0.00 0.00 98 1012.8
20260510063254 53 355 0.0 0.0 0.00 0.00 0.00 98 1012.8
20260510062750 53 355 0.0 0.0 0.00 0.00 0.00 98 1012.7
20260510062246 53 355 0.0 0.0 0.00 0.00 0.00 98 1012.9
20260510061741 53 355 0.0 0.0 0.00 0.00 0.00 98 1013.0
20260510061239 53 355 0.0 0.0 0.00 0.00 0.00 98 1012.7
20260510060735 54 355 0.0 0.0 0.00 0.00 0.00 98 1012.8
20260510060232 54 356 0.0 0.0 0.00 0.00 0.00 98 1012.9
20260510055728 54 344 0.0 0.9 0.00 0.00 0.00 98 1012.8
20260510055227 54 0 0.0 0.0 0.00 0.00 0.00 98 1012.8
20260510054721 54 341 0.0 0.9 0.00 0.00 0.00 97 1012.7
20260510054218 54 359 0.0 0.0 0.00 0.00 0.00 97 1012.8
20260510053717 54 359 0.0 0.0 0.00 0.00 0.00 97 1012.6
20260510053214 54 359 0.0 0.0 0.00 0.00 0.00 97 1012.6
20260510052709 54 355 0.0 0.0 0.00 0.00 0.00 97 1012.6
20260510052206 54 4 0.0 0.0 0.00 0.00 0.00 97 1012.6
20260510051701 54 10 0.0 0.0 0.00 0.00 0.00 97 1012.7
20260510051158 54 11 0.0 0.0 0.00 0.00 0.00 97 1012.8
20260510050656 54 355 0.0 0.0 0.00 0.00 0.00 96 1012.7
20260510050153 54 341 0.0 0.9 0.00 0.00 0.00 96 1012.6
20260510045649 54 357 0.0 0.0 0.00 0.00 0.00 96 1012.8
20260510045146 54 9 0.0 0.0 0.00 0.00 0.00 96 1012.8
20260510044642 54 1 0.0 0.0 0.00 0.00 0.00 96 1012.7
20260510044140 54 357 0.0 0.0 0.00 0.00 0.00 96 1012.7
20260510043635 54 357 0.0 0.0 0.00 0.00 0.00 95 1012.8
20260510043132 54 0 0.0 0.0 0.00 0.00 0.00 95 1012.9
20260510042630 54 0 0.0 0.0 0.00 0.00 0.00 95 1012.8
20260510042125 54 2 0.0 0.0 0.00 0.00 0.00 95 1012.8
20260510041623 54 353 0.0 0.0 0.00 0.00 0.00 95 1012.9
20260510041120 54 347 0.0 0.0 0.00 0.00 0.00 94 1012.8
20260510040617 54 1 0.0 0.0 0.00 0.00 0.00 94 1012.8
20260510040113 54 0 0.0 0.0 0.00 0.00 0.00 94 1012.6
20260510035609 55 358 0.0 0.0 0.00 0.21 0.21 94 1012.7
20260510035109 55 6 0.0 0.0 0.00 0.21 0.21 94 1012.8
20260510034607 55 1 0.0 0.0 0.00 0.21 0.21 93 1012.8
20260510034104 55 348 0.0 0.0 0.00 0.21 0.21 93 1012.7
20260510033600 55 348 0.0 0.0 0.00 0.21 0.21 93 1012.7
20260510033058 55 5 0.0 0.0 0.00 0.21 0.21 93 1012.7
20260510032554 55 359 0.0 0.0 0.00 0.21 0.21 93 1012.7
20260510032050 55 350 0.0 0.0 0.00 0.21 0.21 93 1012.4
20260510031550 55 5 0.0 0.0 0.00 0.21 0.21 92 1012.4
20260510031046 55 355 0.0 0.0 0.00 0.21 0.21 92 1012.3
20260510030541 55 355 0.0 0.0 0.00 0.21 0.21 92 1012.3
20260510030039 55 355 0.0 0.0 0.00 0.21 0.21 91 1012.3
20260510025536 55 353 0.0 0.0 0.00 0.21 0.21 91 1012.2
20260510025034 55 356 0.0 0.0 0.00 0.21 0.21 91 1012.3
20260510024530 55 359 0.0 0.0 0.00 0.21 0.21 91 1012.2
20260510024026 55 351 0.0 0.0 0.00 0.21 0.21 90 1012.3
20260510023522 55 349 0.0 0.0 0.00 0.21 0.21 90 1012.1
20260510023020 56 349 0.0 0.0 0.00 0.21 0.21 90 1012.1
20260510022519 56 349 0.0 0.0 0.00 0.21 0.21 90 1012.1
20260510022014 56 349 0.0 0.0 0.00 0.21 0.21 90 1012.1
20260510021511 56 349 0.0 0.0 0.00 0.21 0.21 89 1011.9
20260510021009 56 349 0.0 0.0 0.00 0.21 0.21 89 1012.1
20260510020503 56 351 0.0 0.0 0.00 0.21 0.21 89 1012.1
20260510015958 57 351 0.0 0.0 0.00 0.21 0.21 89 1011.7
20260510015454 57 351 0.0 0.0 0.00 0.21 0.21 88 1011.7
20260510014949 57 351 0.0 0.0 0.00 0.21 0.21 88 1011.6
20260510014447 57 350 0.0 0.0 0.00 0.21 0.21 87 1011.5
20260510013943 57 350 0.0 0.0 0.00 0.21 0.21 87 1011.3
20260510013432 57 350 0.0 0.0 0.00 0.21 0.21 87 1011.4
20260510012928 58 348 0.0 0.0 0.00 0.21 0.21 87 1011.3
20260510012423 58 348 0.0 0.0 0.00 0.21 0.21 87 1011.1
20260510011918 58 348 0.0 0.0 0.00 0.21 0.21 86 1011.0
20260510011413 58 348 0.0 0.0 0.00 0.21 0.21 86 1011.0
20260510010909 59 348 0.0 0.0 0.00 0.21 0.21 85 1010.9
20260510010407 59 350 0.0 0.0 0.00 0.21 0.21 85 1011.0
20260510005903 59 347 0.0 0.0 0.00 0.21 0.21 84 1010.9
20260510005400 60 349 0.0 0.0 0.00 0.21 0.21 82 1010.7
20260510004857 60 349 0.0 0.0 0.00 0.21 0.21 83 1010.7
20260510004355 60 349 0.0 0.0 0.00 0.21 0.21 83 1010.8
20260510003852 61 349 0.0 0.0 0.00 0.21 0.21 81 1010.5
20260510003349 61 349 0.0 0.0 0.00 0.21 0.21 81 1010.5
20260510002848 62 352 0.0 0.0 0.00 0.21 0.21 81 1010.2
20260510002345 62 347 0.0 0.0 0.00 0.21 0.21 79 1010.3
20260510001842 63 351 0.0 0.0 0.00 0.21 0.21 79 1010.1
20260510001340 64 349 0.0 0.0 0.00 0.21 0.21 77 1010.2
20260510000836 64 339 0.0 0.0 0.00 0.21 0.21 76 1010.3
20260510000333 65 22 0.0 0.9 0.00 0.21 0.21 71 1010.1
20260509235830 66 2 0.0 0.0 0.00 0.21 0.21 70 1010.1
20260509235326 67 348 0.0 0.0 0.00 0.21 0.21 69 1010.2
20260509234822 68 354 0.0 0.0 0.00 0.21 0.21 65 1010.2
20260509234319 69 336 0.0 1.7 0.00 0.21 0.21 57 1010.0
20260509233818 69 9 0.9 1.7 0.00 0.21 0.21 55 1009.9
20260509233315 69 332 0.0 1.7 0.00 0.21 0.21 62 1010.0
20260509232810 70 3 0.0 0.9 0.00 0.21 0.21 55 1009.9
20260509232308 70 357 0.0 1.7 0.00 0.21 0.21 55 1009.9
20260509231804 70 59 0.0 2.6 0.00 0.21 0.21 54 1009.7
20260509231301 70 339 0.0 2.6 0.00 0.21 0.21 54 1009.8
20260509230759 70 351 0.0 2.6 0.00 0.21 0.21 53 1010.0
20260509230256 70 73 0.9 2.6 0.00 0.21 0.21 54 1009.7
20260509225751 71 15 1.7 2.6 0.00 0.21 0.21 51 1009.7
20260509225247 71 14 0.0 0.9 0.00 0.21 0.21 55 1009.8
20260509224743 71 13 0.9 5.2 0.00 0.21 0.21 54 1009.8
20260509224241 71 11 1.7 3.5 0.00 0.21 0.21 54 1009.8
20260509223737 71 355 1.7 1.7 0.00 0.21 0.21 56 1009.9
20260509223235 71 74 0.9 2.6 0.00 0.21 0.21 53 1009.8
20260509222731 71 21 0.9 1.7 0.00 0.21 0.21 56 1009.9
20260509222226 71 29 0.0 2.6 0.00 0.21 0.21 53 1009.9
20260509221722 71 158 1.7 2.6 0.00 0.21 0.21 53 1010.0
20260509221219 71 333 0.9 2.6 0.00 0.21 0.21 54 1009.9
20260509220714 72 256 0.0 5.2 0.00 0.21 0.21 52 1010.1
20260509220211 72 19 0.9 0.9 0.00 0.21 0.21 56 1010.2
20260509215707 71 345 2.6 5.2 0.00 0.21 0.21 51 1010.1
20260509215204 72 11 0.0 0.9 0.00 0.21 0.21 54 1010.1
20260509214701 72 330 0.9 2.6 0.00 0.21 0.21 51 1010.1
20260509214158 72 40 1.7 2.6 0.00 0.21 0.21 50 1010.4
20260509213655 72 35 0.9 3.5 0.00 0.21 0.21 51 1010.4
20260509213150 73 1 2.6 5.2 0.00 0.21 0.21 52 1010.4
20260509212648 72 63 1.7 5.2 0.00 0.21 0.21 51 1010.2
20260509212145 72 353 1.7 1.7 0.00 0.21 0.21 55 1010.0
20260509211641 72 85 1.7 3.5 0.00 0.21 0.21 51 1010.2
20260509211137 72 119 0.9 1.7 0.00 0.21 0.21 54 1010.3
20260509210634 72 47 0.0 2.6 0.00 0.21 0.21 54 1010.5
20260509210131 72 5 1.7 2.6 0.00 0.21 0.21 52 1010.3
20260509205626 72 196 1.7 3.5 0.00 0.21 0.21 52 1010.0
20260509205120 73 19 1.7 3.5 0.00 0.21 0.21 53 1010.3
20260509204618 72 36 2.6 5.2 0.00 0.21 0.21 52 1010.4
20260509204114 72 85 0.9 1.7 0.00 0.21 0.21 52 1010.4
20260509203610 73 333 1.7 1.7 0.00 0.21 0.21 53 1010.4
20260509203109 72 318 0.9 1.7 0.00 0.21 0.21 54 1010.4
20260509202609 71 69 0.9 2.6 0.00 0.21 0.21 53 1010.5
20260509202105 72 122 1.7 3.5 0.00 0.21 0.21 53 1010.7
20260509201604 71 18 0.0 0.9 0.00 0.21 0.21 56 1010.6
20260509201103 71 117 1.7 1.7 0.00 0.21 0.21 55 1010.6
20260509200602 71 55 0.0 2.6 0.00 0.21 0.21 54 1010.8
20260509200059 71 3 0.9 3.5 0.00 0.21 0.21 55 1010.7
20260509195554 71 9 0.0 0.9 0.00 0.21 0.21 59 1010.9
20260509195049 72 156 0.9 1.7 0.00 0.21 0.21 55 1010.8
20260509194544 71 351 1.7 3.5 0.00 0.21 0.21 56 1010.8
20260509194042 71 91 0.9 1.7 0.00 0.21 0.21 54 1011.1
20260509193537 71 23 0.9 1.7 0.00 0.21 0.21 56 1011.2
20260509193034 69 66 0.9 1.7 0.00 0.21 0.21 57 1011.2
20260509192530 70 190 1.7 2.6 0.00 0.21 0.21 56 1011.3
20260509192025 71 132 1.7 1.7 0.00 0.21 0.21 54 1011.0
20260509191520 70 157 0.9 2.6 0.00 0.21 0.21 55 1011.0
20260509191016 70 69 0.9 0.9 0.00 0.21 0.21 57 1011.2
20260509190513 70 106 0.9 1.7 0.00 0.21 0.21 55 1011.3
20260509190011 70 142 0.0 3.5 0.00 0.21 0.21 56 1011.3
20260509185508 70 337 0.0 0.9 0.00 0.21 0.21 59 1011.2
20260509185004 69 355 0.0 0.9 0.00 0.21 0.21 58 1011.2
20260509184503 68 35 0.9 3.5 0.00 0.21 0.21 58 1011.4
20260509183958 69 1 0.0 1.7 0.00 0.21 0.21 59 1011.1
20260509183452 69 307 0.0 1.7 0.00 0.21 0.21 62 1011.4
20260509182949 70 330 0.9 3.5 0.00 0.21 0.21 59 1011.2
20260509182445 70 35 0.0 1.7 0.00 0.21 0.21 57 1011.2
20260509181943 70 60 1.7 3.5 0.00 0.21 0.21 55 1011.3
20260509181441 70 335 0.9 1.7 0.00 0.21 0.21 61 1011.2
20260509180938 69 347 2.6 2.6 0.00 0.21 0.21 54 1011.5
20260509180433 69 1 2.6 5.2 0.00 0.21 0.21 55 1011.2
20260509175931 70 233 0.9 1.7 0.00 0.21 0.21 56 1011.4
20260509175427 69 3 0.0 1.7 0.00 0.21 0.21 55 1011.4
20260509174923 69 340 0.9 1.7 0.00 0.21 0.21 57 1011.7
20260509174419 69 350 3.5 3.5 0.00 0.21 0.21 56 1011.7
20260509173915 68 24 0.0 2.6 0.00 0.21 0.21 62 1011.6
20260509173410 67 155 1.7 1.7 0.00 0.21 0.21 57 1011.7
20260509172906 68 39 0.9 2.6 0.00 0.21 0.21 58 1011.5
20260509172403 68 130 1.7 2.6 0.00 0.21 0.21 58 1011.5
20260509171858 68 278 0.9 3.5 0.00 0.21 0.21 59 1011.5
20260509171354 68 350 2.6 3.5 0.00 0.21 0.21 62 1011.5
20260509170846 67 7 1.7 1.7 0.00 0.21 0.21 63 1011.4
20260509170341 66 15 0.0 1.7 0.00 0.21 0.21 64 1011.4
20260509165836 65 59 0.9 2.6 0.00 0.21 0.21 66 1011.7
20260509165330 65 281 1.7 3.5 0.00 0.21 0.21 66 1011.6
20260509164827 64 182 2.6 3.5 0.00 0.21 0.21 67 1011.5
20260509164323 64 4 0.9 2.6 0.00 0.21 0.21 68 1011.6
20260509163820 65 289 3.5 6.1 0.00 0.21 0.21 67 1011.5
20260509163317 64 21 0.0 1.7 0.00 0.21 0.21 69 1011.6
20260509162816 63 120 3.5 5.2 0.00 0.21 0.21 70 1011.7
20260509162309 62 30 2.6 2.6 0.00 0.21 0.21 72 1011.7
20260509161805 62 57 0.9 1.7 0.00 0.21 0.21 72 1011.6
20260509161301 62 9 0.0 0.9 0.00 0.21 0.21 79 1011.4
20260509160757 61 105 0.9 1.7 0.00 0.21 0.21 80 1011.6
20260509160254 59 43 0.0 0.9 0.00 0.21 0.21 83 1011.5
20260509155748 58 354 0.0 0.9 0.00 0.21 0.21 84 1011.6
20260509155246 57 52 0.0 0.9 0.00 0.21 0.21 87 1011.7
20260509154741 57 39 1.7 1.7 0.00 0.21 0.21 87 1011.6
20260509154239 57 48 1.7 1.7 0.00 0.21 0.21 87 1011.7
20260509153736 57 356 0.0 0.9 0.00 0.21 0.21 92 1011.6
20260509153231 57 4 0.0 0.0 0.00 0.21 0.21 93 1011.4
20260509152727 57 346 0.0 0.9 0.00 0.21 0.21 93 1011.6
20260509152219 57 49 0.0 0.9 0.00 0.21 0.21 93 1011.4
20260509151716 58 34 0.0 0.9 0.00 0.21 0.21 95 1011.6
20260509151213 57 321 0.0 1.7 0.00 0.21 0.21 93 1011.3
20260509150710 57 0 0.9 2.6 0.00 0.21 0.21 94 1011.6
20260509150209 57 324 0.0 0.9 0.00 0.21 0.21 95 1011.6
20260509145705 57 4 0.0 0.0 0.00 0.21 0.21 96 1011.7
20260509145200 57 14 0.0 0.0 0.00 0.21 0.21 95 1011.8
20260509144656 56 12 0.0 0.0 0.00 0.21 0.21 95 1011.6
20260509144154 56 22 0.0 0.9 0.00 0.21 0.21 96 1011.5
20260509143651 56 1 0.0 0.9 0.00 0.21 0.21 96 1011.6
20260509143149 56 22 0.0 0.9 0.00 0.21 0.21 96 1011.6
20260509142644 56 33 0.0 0.0 0.00 0.21 0.21 97 1011.5
20260509142141 56 19 0.0 0.0 0.00 0.21 0.21 97 1011.4
20260509141636 56 27 0.0 0.9 0.00 0.21 0.21 98 1011.4
20260509141133 56 24 0.0 0.0 0.00 0.21 0.21 98 1011.2
20260509140630 55 9 0.0 0.0 0.00 0.21 0.21 98 1011.1
20260509140128 55 10 0.0 0.9 0.00 0.21 0.21 98 1011.2
20260509135625 54 158 0.9 1.7 0.00 0.21 0.21 99 1011.1
20260509135123 55 312 0.0 0.9 0.00 0.21 0.21 99 1011.3
20260509134619 55 353 0.0 0.0 0.00 0.21 0.21 99 1011.3
20260509134117 54 6 0.0 0.0 0.00 0.21 0.21 99 1011.1
20260509133614 54 6 0.0 0.0 0.00 0.21 0.21 99 1011.4
20260509133111 53 6 0.0 0.0 0.00 0.21 0.21 99 1011.4
20260509132609 53 13 0.0 0.0 0.00 0.21 0.21 99 1011.8
20260509132108 53 13 0.0 0.0 0.00 0.21 0.21 99 1011.8
20260509131603 53 16 0.0 0.0 0.00 0.21 0.21 99 1012.0
20260509131100 53 4 0.0 0.0 0.05 0.21 0.21 99 1011.9
20260509130556 53 349 0.0 0.0 0.05 0.21 0.21 99 1012.1
20260509130053 53 335 0.0 0.0 0.00 0.20 0.20 99 1011.7
20260509125549 53 355 0.0 0.0 0.00 0.20 0.20 99 1011.6
20260509125046 53 343 0.0 0.0 0.00 0.20 0.20 99 1011.6
20260509124542 53 335 0.0 0.0 0.00 0.20 0.20 99 1011.6
20260509124040 53 345 0.0 0.0 0.00 0.20 0.20 99 1011.8